Tiempo cada hora Murygino

Hoy, 28 Octubre, Miércoles

Tiempo Temperatura Precipitaciones Viento Presión Humedad
00:00 +6°C° 0 mm 4 mps 745 mmHg 80%
01:00 +5°C° 0 mm 4 mps 745 mmHg 82%
02:00 +5°C° 0 mm 4 mps 745 mmHg 80%
03:00 +5°C° 0 mm 4 mps 745 mmHg 81%
04:00 +4°C° 0 mm 4 mps 745 mmHg 82%
05:00 +4°C° 0 mm 4 mps 744 mmHg 83%
06:00 +4°C° 0 mm 4 mps 745 mmHg 82%
07:00 +4°C° 0 mm 4 mps 745 mmHg 82%
08:00 +5°C° 0 mm 4 mps 745 mmHg 81%
09:00 +6°C° 0 mm 4 mps 745 mmHg 78%
10:00 +7°C° 0 mm 4 mps 745 mmHg 75%
11:00 +8°C° 0 mm 4 mps 745 mmHg 72%
12:00 +8°C° 0 mm 4 mps 745 mmHg 72%
13:00 +10°C° 0 mm 4 mps 745 mmHg 72%
14:00 +10°C° 0 mm 3 mps 745 mmHg 72%
15:00 +9°C° 0 mm 3 mps 745 mmHg 76%
16:00 +8°C° 0 mm 3 mps 745 mmHg 81%
17:00 +7°C° 0 mm 3 mps 745 mmHg 85%
18:00 +7°C° 0 mm 3 mps 745 mmHg 86%
19:00 +7°C° 0 mm 3 mps 745 mmHg 87%
20:00 +5°C° 0 mm 3 mps 745 mmHg 88%
21:00 +5°C° 0 mm 3 mps 745 mmHg 88%
22:00 +5°C° 0 mm 3 mps 745 mmHg 88%
23:00 +5°C° 0 mm 3 mps 745 mmHg 88%

Mañana, 29 Octubre, Jueves

Tiempo Temperatura Precipitaciones Viento Presión Humedad
00:00 +4°C° 0 mm 3 mps 745 mmHg 88%
01:00 +4°C° 0 mm 3 mps 745 mmHg 89%
02:00 +4°C° 0 mm 3 mps 745 mmHg 89%
03:00 +4°C° 0 mm 3 mps 744 mmHg 90%
04:00 +4°C° 0 mm 3 mps 744 mmHg 90%
05:00 +3°C° 0 mm 3 mps 744 mmHg 91%
06:00 +4°C° 0 mm 3 mps 744 mmHg 90%
07:00 +4°C° 0 mm 3 mps 744 mmHg 89%
08:00 +4°C° 0 mm 4 mps 743 mmHg 88%
09:00 +5°C° 0 mm 4 mps 743 mmHg 85%
10:00 +6°C° 0 mm 4 mps 743 mmHg 81%
11:00 +7°C° 0 mm 4 mps 743 mmHg 78%
12:00 +8°C° 0 mm 4 mps 743 mmHg 77%
13:00 +8°C° 0 mm 4 mps 742 mmHg 77%
14:00 +10°C° 0 mm 4 mps 742 mmHg 77%
15:00 +9°C° 0 mm 3 mps 742 mmHg 82%
16:00 +8°C° 0 mm 3 mps 742 mmHg 87%
17:00 +7°C° 0 mm 3 mps 741 mmHg 92%
18:00 +7°C° 0 mm 3 mps 741 mmHg 92%
19:00 +7°C° 0 mm 3 mps 741 mmHg 93%
20:00 +7°C° 0 mm 3 mps 741 mmHg 93%
21:00 +7°C° 0 mm 3 mps 741 mmHg 93%
22:00 +7°C° 0 mm 3 mps 741 mmHg 93%
23:00 +7°C° 0 mm 2 mps 741 mmHg 93%

Pasado mañana, 30 Octubre, Viernes

Tiempo Temperatura Precipitaciones Viento Presión Humedad
00:00 +6°C° 0 mm 2 mps 740 mmHg 94%
01:00 +6°C° 0 mm 2 mps 740 mmHg 94%
02:00 +6°C° 0 mm 2 mps 740 mmHg 94%
03:00 +6°C° 0 mm 2 mps 740 mmHg 95%
04:00 +6°C° 0 mm 2 mps 740 mmHg 95%
05:00 +6°C° 0 mm 2 mps 740 mmHg 95%
06:00 +6°C° 0.1 mm 2 mps 740 mmHg 94%
07:00 +7°C° 0.1 mm 2 mps 740 mmHg 94%
08:00 +7°C° 0.1 mm 2 mps 740 mmHg 93%
09:00 +7°C° 0.1 mm 2 mps 740 mmHg 92%
10:00 +7°C° 0.1 mm 2 mps 740 mmHg 92%
11:00 +7°C° 0.1 mm 2 mps 740 mmHg 91%
12:00 +7°C° 0.1 mm 2 mps 740 mmHg 91%
13:00 +8°C° 0.1 mm 2 mps 740 mmHg 92%
14:00 +9°C° 0.1 mm 1 mps 739 mmHg 92%
15:00 +8°C° 0 mm 1 mps 739 mmHg 93%
16:00 +8°C° 0 mm 1 mps 739 mmHg 94%
17:00 +8°C° 0 mm 1 mps 739 mmHg 95%
18:00 +8°C° 0.2 mm 1 mps 740 mmHg 95%
19:00 +8°C° 0.2 mm 1 mps 740 mmHg 96%
20:00 +8°C° 0.2 mm 1 mps 740 mmHg 96%
21:00 +8°C° 0.3 mm 1 mps 740 mmHg 97%
22:00 +7°C° 0.3 mm 0 mps 740 mmHg 97%
23:00 +7°C° 0.3 mm 0 mps 740 mmHg 97%

31 Octubre, Sábado

Tiempo Temperatura Precipitaciones Viento Presión Humedad
00:00 +8°C° 0.1 mm 1 mps 740 mmHg 97%
01:00 +9°C° 0.1 mm 1 mps 740 mmHg 97%
02:00 +9°C° 0.1 mm 1 mps 740 mmHg 97%
03:00 +9°C° 0.1 mm 1 mps 740 mmHg 97%
04:00 +9°C° 0.1 mm 1 mps 741 mmHg 97%
05:00 +8°C° 0.1 mm 2 mps 741 mmHg 97%
06:00 +8°C° 0 mm 2 mps 741 mmHg 96%
07:00 +8°C° 0 mm 2 mps 742 mmHg 96%
08:00 +8°C° 0 mm 2 mps 742 mmHg 96%
09:00 +8°C° 0 mm 2 mps 743 mmHg 92%
10:00 +9°C° 0 mm 3 mps 743 mmHg 89%
11:00 +9°C° 0 mm 3 mps 744 mmHg 86%
12:00 +9°C° 0 mm 3 mps 744 mmHg 85%
13:00 +9°C° 0 mm 3 mps 744 mmHg 84%
14:00 +10°C° 0 mm 3 mps 745 mmHg 84%
15:00 +9°C° 0 mm 3 mps 745 mmHg 85%
16:00 +9°C° 0 mm 3 mps 745 mmHg 86%
17:00 +9°C° 0 mm 3 mps 746 mmHg 87%
18:00 +8°C° 0 mm 3 mps 746 mmHg 87%
19:00 +8°C° 0 mm 3 mps 746 mmHg 86%
20:00 +7°C° 0 mm 4 mps 747 mmHg 85%
21:00 +7°C° 0 mm 3 mps 747 mmHg 86%
22:00 +7°C° 0 mm 3 mps 747 mmHg 87%
23:00 +7°C° 0 mm 3 mps 748 mmHg 87%

1 Noviembre, Domingo

Tiempo Temperatura Precipitaciones Viento Presión Humedad
00:00 +5°C° 0 mm 3 mps 748 mmHg 88%
01:00 +5°C° 0 mm 3 mps 748 mmHg 88%
02:00 +5°C° 0 mm 3 mps 748 mmHg 88%
03:00 +4°C° 0 mm 3 mps 748 mmHg 87%
04:00 +4°C° 0 mm 3 mps 748 mmHg 86%
05:00 +5°C° 0 mm 2 mps 748 mmHg 85%
06:00 +5°C° 0 mm 2 mps 749 mmHg 82%
07:00 +5°C° 0 mm 2 mps 749 mmHg 80%
08:00 +5°C° 0 mm 2 mps 749 mmHg 77%
09:00 +6°C° 0 mm 2 mps 749 mmHg 74%
10:00 +6°C° 0 mm 2 mps 750 mmHg 70%
11:00 +6°C° 0 mm 2 mps 750 mmHg 66%
12:00 +6°C° 0 mm 2 mps 750 mmHg 65%
13:00 +6°C° 0 mm 2 mps 749 mmHg 63%
14:00 +6°C° 0 mm 2 mps 749 mmHg 61%
15:00 +6°C° 0 mm 1 mps 749 mmHg 64%
16:00 +6°C° 0 mm 1 mps 749 mmHg 67%
17:00 +5°C° 0 mm 1 mps 750 mmHg 70%
18:00 +4°C° 0 mm 1 mps 750 mmHg 72%
19:00 +4°C° 0 mm 1 mps 750 mmHg 75%
20:00 +3°C° 0 mm 1 mps 750 mmHg 77%
21:00 +3°C° 0 mm 1 mps 750 mmHg 77%
22:00 +2°C° 0 mm 1 mps 750 mmHg 78%
23:00 +2°C° 0 mm 1 mps 750 mmHg 79%

2 Noviembre, Lunes

Tiempo Temperatura Precipitaciones Viento Presión Humedad
00:00 +2°C° 0 mm 1 mps 750 mmHg 79%
01:00 +2°C° 0 mm 1 mps 750 mmHg 80%
02:00 +1°C° 0 mm 1 mps 750 mmHg 80%
03:00 +1°C° 0 mm 1 mps 750 mmHg 80%
04:00 +1°C° 0 mm 1 mps 750 mmHg 81%
05:00 +1°C° 0 mm 1 mps 750 mmHg 82%
06:00 +1°C° 0 mm 1 mps 750 mmHg 81%
07:00 +2°C° 0 mm 1 mps 751 mmHg 81%
08:00 +2°C° 0 mm 1 mps 751 mmHg 81%
09:00 +2°C° 0 mm 2 mps 751 mmHg 76%
10:00 +4°C° 0 mm 2 mps 751 mmHg 72%
11:00 +5°C° 0 mm 2 mps 751 mmHg 67%
12:00 +5°C° 0 mm 2 mps 751 mmHg 67%
13:00 +6°C° 0 mm 2 mps 751 mmHg 67%
14:00 +6°C° 0 mm 2 mps 751 mmHg 67%
15:00 +5°C° 0 mm 2 mps 751 mmHg 71%
16:00 +4°C° 0 mm 2 mps 751 mmHg 76%
17:00 +2°C° 0 mm 2 mps 751 mmHg 80%
18:00 +2°C° 0 mm 2 mps 751 mmHg 81%
19:00 +2°C° 0 mm 2 mps 751 mmHg 83%
20:00 +2°C° 0 mm 2 mps 751 mmHg 84%
21:00 +1°C° 0 mm 2 mps 751 mmHg 84%
22:00 +1°C° 0 mm 2 mps 751 mmHg 85%
23:00 +1°C° 0 mm 2 mps 751 mmHg 86%
Mostrar más

Necesitamos Su Consentimiento

Meteoprog y nuestros Proveedores de Servicios pueden almacenar y acceder a sus datos personales como cookies, identificadores de dispositivo u otras tecnologías similares de su dispositivo y procesar dichos datos para personalizar contenido y anuncios, además de ofrecer funciones de redes sociales y analizar el tráfico.

  • Almacenar y/o acceder a información en su dispositivo

    Se puede almacenar o acceder a cookies, identificadores de dispositivo u otra información de su dispositivo para los fines anteriormente indicados.

  • Anuncios y contenido personalizados, medición de anuncios y contenido, percepciones del público, y desarrollo de productos

    Los anuncios y el contenido pueden personalizarse en base a su perfil. Se pueden añadir más datos para personalizar mejor los anuncios y contenidos. Se puede medir el rendimiento de los anuncios y contenidos. Se puede obtener la percepción sobre el público que ha visto los anuncios y contenidos. Dichos datos pueden usarse para desarrollar o mejorar la experiencia del usuario, sistemas y software.

Al hacer clic en ‘Estoy De Acuerdo’ usted permitirá el uso de las cookies, identificadores de dispositivo, balizas web u otras tecnologías similares indicadas. Su configuración puede cambiarse desde el navegador de su dispositivo.

Para ciertos fines, los intereses legítimos pueden ser considerados por encima del consentimiento. Puede leer más sobre ello en nuestra Política de Privacidad y Cookies.